{"data":{"norad_id":89177,"intl_designator":"","name":"UNKNOWN","alt_names":[],"object_type":"UNKNOWN","status":"UNKNOWN","operator":null,"country":null,"launch_date":null,"launch_site_code":null,"launch_vehicle":null,"mission":null,"orbit_class":"UNKNOWN","rcs_meters":null,"size_class":null,"mass_kg":null,"dimensions":null,"purposes":[],"wikipedia_slug":null,"has_3d_model":false,"image_url":null,"decayed_at":null,"tle_current":{"epoch":"2026-09-14T04:39:52.929504Z","epoch_age_seconds":559290,"freshness":"STALE","line1":"1 89177U          26257.19436261  .00000056  00000+0  43396-4 0  9995","line2":"2 89177  82.9184  64.8941 0033703  96.1455 264.3542 13.73766422100642","mean_motion":13.73766422,"eccentricity":0.0033703,"inclination_deg":82.9184,"raan_deg":64.8941,"arg_perigee_deg":96.1455,"mean_anomaly_deg":264.3542,"bstar":4.3396e-5,"rev_number":10064,"period_min":104.8213129204,"perigee_km":961.26036846045,"apogee_km":1010.8996094964,"semimajor_km":7364.2169889784,"source":"CELESTRAK","updated_at":"2026-09-20T09:00:32.483208Z"}}}